TimeEST,TemperatureF,Dew PointF,Humidity,Sea Level PressureIn,VisibilityMPH,Wind Direction,Wind SpeedMPH,Gust SpeedMPH,PrecipitationIn,Events,Conditions,WindDirDegrees,DateUTC
1:52 AM,30.9,19.0,61,29.87,10.0,NW,12.7,-,N/A,,Partly Cloudy,320,2013-03-03 06:52:00
2:52 AM,30.9,19.0,61,29.86,10.0,NW,10.4,18.4,N/A,,Partly Cloudy,320,2013-03-03 07:52:00
3:52 AM,32.0,19.0,59,29.86,10.0,NW,8.1,-,N/A,,Mostly Cloudy,320,2013-03-03 08:52:00
4:52 AM,30.9,18.0,59,29.87,10.0,NNW,10.4,-,N/A,,Scattered Clouds,330,2013-03-03 09:52:00
5:52 AM,30.9,18.0,59,29.87,10.0,NNW,8.1,-,N/A,,Scattered Clouds,330,2013-03-03 10:52:00
6:52 AM,30.0,19.0,64,29.87,10.0,NNW,9.2,-,N/A,,Scattered Clouds,340,2013-03-03 11:52:00
7:52 AM,34.0,19.9,56,29.89,10.0,NNW,8.1,-,N/A,,Scattered Clouds,330,2013-03-03 12:52:00
8:52 AM,35.1,19.0,52,29.88,10.0,NW,19.6,25.3,N/A,,Mostly Cloudy,310,2013-03-03 13:52:00
9:52 AM,36.0,17.1,46,29.88,10.0,NNW,20.7,27.6,N/A,,Mostly Cloudy,330,2013-03-03 14:52:00
10:52 AM,37.9,17.1,43,29.88,10.0,NNW,16.1,28.8,N/A,,Mostly Cloudy,330,2013-03-03 15:52:00
11:52 AM,39.0,17.1,41,29.86,10.0,NNW,12.7,23.0,N/A,,Mostly Cloudy,330,2013-03-03 16:52:00
12:52 PM,39.0,17.1,41,29.85,10.0,NW,12.7,25.3,N/A,,Mostly Cloudy,320,2013-03-03 17:52:00
1:52 PM,41.0,16.0,36,29.82,10.0,WNW,16.1,23.0,N/A,,Mostly Cloudy,300,2013-03-03 18:52:00
2:52 PM,42.1,16.0,35,29.81,10.0,West,13.8,24.2,N/A,,Overcast,280,2013-03-03 19:52:00
3:52 PM,42.1,16.0,35,29.81,10.0,NNW,15.0,20.7,N/A,,Overcast,340,2013-03-03 20:52:00
4:52 PM,41.0,16.0,36,29.82,10.0,WNW,17.3,-,N/A,,Overcast,290,2013-03-03 21:52:00
5:52 PM,39.9,16.0,38,29.84,10.0,NNW,12.7,-,N/A,,Mostly Cloudy,330,2013-03-03 22:52:00
6:52 PM,37.9,16.0,41,29.87,10.0,NW,15.0,25.3,N/A,,Overcast,320,2013-03-03 23:52:00
7:52 PM,36.0,16.0,44,29.90,10.0,NW,19.6,31.1,N/A,,Scattered Clouds,320,2013-03-04 00:52:00
8:52 PM,35.1,15.1,44,29.92,10.0,NW,13.8,27.6,N/A,,Partly Cloudy,320,2013-03-04 01:52:00
9:52 PM,34.0,14.0,44,29.93,10.0,NW,10.4,20.7,N/A,,Partly Cloudy,320,2013-03-04 02:52:00
10:52 PM,33.1,14.0,46,29.93,10.0,NW,11.5,19.6,N/A,,Partly Cloudy,320,2013-03-04 03:52:00
11:52 PM,32.0,14.0,48,29.94,10.0,NW,15.0,23.0,N/A,,Partly Cloudy,310,2013-03-04 04:52:00